Corpus Christi, TX

6:42 PM CST on February 23, 2018 (GMT -0600)
Corpus Christi International

Weather History for KCRP - May, 2014

Change the Weather History Date:

Friday, May 9, 2014

  Actual Average Record
Temperature  
Mean Temperature 74 °F 77 °F  
Max Temperature 79 °F 85 °F 100 °F (1998)
Min Temperature 68 °F 69 °F 56 °F (1984)
Degree Days  
Heating Degree Days 0 0  
Month to date heating degree days 0 0  
Since 1 July heating degree days 1145 898  
Cooling Degree Days 9 12  
Month to date cooling degree days 81 103  
Year to date cooling degree days 527 531  
Growing Degree Days 24 (Base 50)    
Moisture  
Dew Point 72 °F    
Average Humidity 87    
Maximum Humidity 94    
Minimum Humidity 79    
Precipitation  
Precipitation 2.32 in 0.10 in 2.72 in (1968)
Month to date precipitation 2.42 0.80  
Year to date precipitation 5.48 8.00  
Snow  
Snow 0.00 in - - ()
Month to date snowfall 0.0  
Since 1 July snowfall T  
Snow Depth 0.00 in    
Sea Level Pressure  
Sea Level Pressure 29.88 in    
Wind  
Wind Speed 17 mph (SE)    
Max Wind Speed 32 mph    
Max Gust Speed 39 mph    
Visibility 4 miles    
Events Fog , Rain , Thunderstorm    
T = Trace of Precipitation, MM = Missing Value Source: NWS Daily Summary

Daily Weather History Graph

Daily Weather History Graph

Search for Another Location

Airport or City:

Trip Planner

Search our weather history database for the weather conditions in past years. The results will help you decide how hot, cold, wet, or windy it might be!

Date:

Astronomy

May. 09, 2014 Rise Set
Actual Time 6:44 AM CDT 8:08 PM CDT
Civil Twilight 6:19 AM CDT 8:33 PM CDT
Nautical Twilight 5:49 AM CDT 9:04 PM CDT
Astronomical Twilight 5:18 AM CDT 9:35 PM CDT
Moon 3:33 PM CDT (5/9) 3:19 AM CDT (5/9)
Length of Visible Light 14h 14m
Length of Day
13h 24m
Waxing Gibbous, 74% of the Moon is Illuminated
May 9
Waxing Gibbous
May 14
Full
May 21
Last Quarter
May 28
New
Jun 5
First Quarter

Hourly Weather History & Observations

Time (CDT) Temp. Dew Point Humidity Pressure Visibility Wind Dir Wind Speed Gust Speed Precip Events Conditions
12:51 AM 75.9 °F 73.9 °F 94% 29.85 in 7.0 mi South 15.0 mph - N/A   Overcast
1:00 AM 75.9 °F 73.9 °F 94% 29.85 in 7.0 mi South 16.1 mph - N/A   Overcast
1:51 AM 75.9 °F 73.9 °F 94% 29.83 in 6.0 mi South 17.3 mph - N/A   Overcast
2:51 AM 75.9 °F 73.0 °F 91% 29.83 in 5.0 mi South 15.0 mph - N/A   Overcast
3:51 AM 75.0 °F 73.0 °F 94% 29.83 in 4.0 mi SSE 15.0 mph - N/A   Overcast
4:51 AM 75.0 °F 73.0 °F 94% 29.83 in 7.0 mi SE 9.2 mph - N/A   Overcast
5:29 AM 75.0 °F 73.0 °F 94% 29.83 in 2.0 mi SSE 11.5 mph - N/A   Overcast
5:49 AM 75.2 °F 73.4 °F 94% 29.84 in 1.8 mi SSE 11.5 mph - N/A   Overcast
5:51 AM 75.0 °F 73.0 °F 94% 29.83 in 1.8 mi SSE 11.5 mph - N/A   Overcast
6:37 AM 75.0 °F 73.0 °F 94% 29.85 in 2.0 mi SSE 11.5 mph - N/A   Overcast
6:51 AM 75.0 °F 73.0 °F 94% 29.86 in 1.5 mi SE 11.5 mph - 0.00 in   Light Drizzle
7:51 AM 75.0 °F 73.0 °F 94% 29.88 in 1.5 mi SSE 10.4 mph - 0.00 in   Light Drizzle
8:35 AM 75.0 °F 73.9 °F 96% 29.89 in 1.0 mi SSE 10.4 mph - 0.04 in Rain , Thunderstorm Light Rain
8:51 AM 75.0 °F 73.9 °F 96% 29.89 in 1.5 mi SE 10.4 mph - 0.05 in Rain , Thunderstorm Rain
9:01 AM 75.0 °F 73.9 °F 96% 29.89 in 1.5 mi SE 10.4 mph - 0.02 in Rain , Thunderstorm Rain
9:12 AM 75.0 °F 73.9 °F 96% 29.89 in 1.5 mi SSE 15.0 mph - 0.02 in Rain , Thunderstorm Light Thunderstorms and Rain
9:31 AM 75.9 °F 73.9 °F 94% 29.90 in 0.8 mi ESE 25.3 mph 31.1 mph 0.03 in Rain , Thunderstorm Heavy Thunderstorms and Rain
9:35 AM 75.0 °F 73.9 °F 96% 29.90 in 0.8 mi ESE 19.6 mph 31.1 mph 0.07 in Rain , Thunderstorm Heavy Thunderstorms and Rain
9:38 AM 75.0 °F 73.9 °F 96% 29.91 in 1.5 mi ESE 18.4 mph 31.1 mph 0.08 in Rain , Thunderstorm Light Thunderstorms and Rain
9:51 AM 75.9 °F 73.9 °F 94% 29.91 in 1.5 mi SE 23.0 mph - 0.08 in Rain , Thunderstorm Light Thunderstorms and Rain
9:59 AM 75.9 °F 73.9 °F 94% 29.90 in 1.5 mi ESE 21.9 mph - 0.08 in Rain , Thunderstorm Heavy Thunderstorms and Rain
10:39 AM 75.9 °F 73.9 °F 94% 29.91 in 3.0 mi SE 18.4 mph - 0.20 in Rain , Thunderstorm Light Thunderstorms and Rain
10:51 AM 75.9 °F 73.9 °F 94% 29.90 in 3.0 mi SSE 20.7 mph - 0.21 in Rain , Thunderstorm Thunderstorms and Rain
11:05 AM 75.9 °F 73.9 °F 94% 29.89 in 3.0 mi SE 26.5 mph - 0.05 in Rain Heavy Rain
11:08 AM 75.9 °F 73.9 °F 94% 29.89 in 3.0 mi SE 24.2 mph - 0.05 in Rain , Thunderstorm Thunderstorms and Rain
11:51 AM 75.0 °F 73.0 °F 94% 29.88 in 3.0 mi SSE 24.2 mph - 0.15 in Rain , Thunderstorm Thunderstorms and Rain
12:35 PM 75.0 °F 73.0 °F 94% 29.90 in 5.0 mi SSE 16.1 mph - 0.02 in Rain , Thunderstorm Light Thunderstorms and Rain
12:51 PM 75.0 °F 73.0 °F 94% 29.88 in 4.0 mi SSE 27.6 mph 31.1 mph 0.04 in Rain , Thunderstorm Light Thunderstorms and Rain
1:42 PM 75.0 °F 73.0 °F 94% 29.87 in 6.0 mi South 27.6 mph 32.2 mph 0.02 in Rain , Thunderstorm Light Rain
1:44 PM 75.9 °F 73.0 °F 91% 29.87 in 6.0 mi South 25.3 mph 32.2 mph 0.02 in Rain Light Rain
1:51 PM 75.0 °F 72.0 °F 90% 29.87 in 9.0 mi South 23.0 mph 33.4 mph 0.02 in   Overcast
2:51 PM 75.0 °F 68.0 °F 79% 29.85 in 10.0 mi SSE 24.2 mph - 0.00 in   Overcast
3:51 PM 75.0 °F 71.1 °F 87% 29.84 in 4.0 mi SE 11.5 mph - 0.09 in   Overcast
4:51 PM 77.0 °F 73.0 °F 88% 29.83 in 10.0 mi ESE 8.1 mph - 0.00 in   Overcast
5:51 PM 75.9 °F 69.1 °F 79% 29.83 in 10.0 mi ENE 18.4 mph - 0.00 in Rain Light Rain
6:22 PM 75.9 °F 71.1 °F 85% 29.88 in 10.0 mi NNE 12.7 mph 23.0 mph 0.00 in Rain , Thunderstorm Light Thunderstorms and Rain
6:28 PM 75.0 °F 71.1 °F 87% 29.89 in 2.5 mi North 15.0 mph - 0.02 in Rain , Thunderstorm Heavy Thunderstorms and Rain
6:36 PM 73.9 °F 71.1 °F 91% 29.90 in 1.2 mi NNE 15.0 mph - 0.16 in Rain , Thunderstorm Heavy Thunderstorms and Rain
6:41 PM 73.0 °F 71.1 °F 93% 29.90 in 0.8 mi NNE 19.6 mph 27.6 mph 0.34 in Rain , Thunderstorm Heavy Thunderstorms and Rain
6:51 PM 72.0 °F 70.0 °F 93% 29.90 in 0.5 mi NNE 21.9 mph - 0.77 in Fog , Rain , Thunderstorm Heavy Thunderstorms and Rain
7:03 PM 72.0 °F 70.0 °F 93% 29.90 in 1.5 mi NNE 27.6 mph 34.5 mph 0.26 in Rain , Thunderstorm Heavy Thunderstorms and Rain
7:12 PM 70.0 °F 66.9 °F 90% 29.89 in 2.8 mi NNE 31.1 mph 39.1 mph 0.31 in Rain , Thunderstorm Heavy Thunderstorms and Rain
7:20 PM 70.0 °F 66.9 °F 90% 29.90 in 3.0 mi NNE 26.5 mph 39.1 mph 0.35 in Rain , Thunderstorm Thunderstorms and Rain
7:51 PM 70.0 °F 66.0 °F 87% 29.93 in 10.0 mi NNE 26.5 mph 31.1 mph 0.35 in Rain , Thunderstorm Light Thunderstorms and Rain
8:51 PM 69.1 °F 66.0 °F 90% 30.00 in 8.0 mi North 17.3 mph - 0.08 in Rain , Thunderstorm Thunderstorms and Rain
9:51 PM 69.1 °F 66.0 °F 90% 30.04 in 7.0 mi NE 3.5 mph - 0.33 in Rain , Thunderstorm Heavy Thunderstorms and Rain
10:05 PM 70.0 °F 66.0 °F 87% 30.02 in 8.0 mi ESE 9.2 mph - 0.08 in Rain Heavy Rain
10:51 PM 68.0 °F 62.1 °F 81% 29.95 in 10.0 mi SE 19.6 mph - 0.14 in Rain Light Rain
11:51 PM 70.0 °F 61.0 °F 73% 29.74 in 10.0 mi SE 24.2 mph - 0.00 in   Overcast